TimePDT,TemperatureF,Dew PointF,Humidity,Sea Level PressureIn,VisibilityMPH,Wind Direction,Wind SpeedMPH,Gust SpeedMPH,PrecipitationIn,Events,Conditions,WindDirDegrees,DateUTC
12:55 AM,50.0,45.0,83,29.84,8.0,Calm,Calm,-,N/A,,Clear,0,2013-03-22 07:55:00
1:55 AM,52.0,46.9,83,29.83,8.0,ENE,4.6,-,N/A,,Clear,70,2013-03-22 08:55:00
2:55 AM,52.0,46.0,80,29.82,9.0,Calm,Calm,-,N/A,,Clear,0,2013-03-22 09:55:00
3:55 AM,48.9,44.1,83,29.81,9.0,Calm,Calm,-,N/A,,Clear,0,2013-03-22 10:55:00
4:55 AM,46.9,41.0,80,29.82,10.0,Calm,Calm,-,N/A,,Clear,0,2013-03-22 11:55:00
5:55 AM,50.0,41.0,71,29.83,10.0,Calm,Calm,-,N/A,,Clear,0,2013-03-22 12:55:00
6:55 AM,46.9,39.0,74,29.85,10.0,Calm,Calm,-,N/A,,Clear,0,2013-03-22 13:55:00
7:55 AM,48.0,39.9,74,29.89,10.0,Calm,Calm,-,N/A,,Clear,0,2013-03-22 14:55:00
8:55 AM,55.0,41.0,59,29.90,10.0,Calm,Calm,-,N/A,,Clear,0,2013-03-22 15:55:00
9:55 AM,61.0,41.0,48,29.91,10.0,West,3.5,-,N/A,,Clear,260,2013-03-22 16:55:00
10:55 AM,66.9,42.1,40,29.91,10.0,WSW,6.9,-,N/A,,Clear,240,2013-03-22 17:55:00
11:55 AM,68.0,48.0,49,29.91,10.0,SSW,8.1,-,N/A,,Clear,210,2013-03-22 18:55:00
12:55 PM,70.0,48.0,46,29.90,10.0,SW,8.1,-,N/A,,Clear,230,2013-03-22 19:55:00
1:55 PM,69.1,46.0,44,29.89,10.0,WSW,12.7,-,N/A,,Clear,240,2013-03-22 20:55:00
2:55 PM,70.0,44.1,39,29.88,10.0,SW,9.2,-,N/A,,Clear,230,2013-03-22 21:55:00
3:55 PM,69.1,46.9,45,29.86,10.0,SSW,8.1,-,N/A,,Clear,200,2013-03-22 22:55:00
4:55 PM,66.9,48.9,52,29.86,10.0,South,5.8,-,N/A,,Clear,180,2013-03-22 23:55:00
5:55 PM,66.9,48.0,51,29.84,10.0,SSE,4.6,-,N/A,,Clear,150,2013-03-23 00:55:00
6:55 PM,64.0,48.9,58,29.86,9.0,ESE,3.5,-,N/A,,Clear,120,2013-03-23 01:55:00
7:55 PM,61.0,46.9,60,29.87,10.0,Calm,Calm,-,N/A,,Clear,0,2013-03-23 02:55:00
8:55 PM,57.9,46.0,65,29.88,10.0,Calm,Calm,-,N/A,,Clear,0,2013-03-23 03:55:00
9:55 PM,57.9,46.0,65,29.90,10.0,East,5.8,-,N/A,,Clear,80,2013-03-23 04:55:00
10:55 PM,55.9,45.0,67,29.91,10.0,ENE,4.6,-,N/A,,Clear,60,2013-03-23 05:55:00
11:55 PM,53.1,43.0,69,29.92,10.0,SSW,4.6,-,N/A,,Clear,200,2013-03-23 06:55:00